Theta_e
300 302 301 301 299 297 293 294 289 292 296 299 300 301 301 302 302 300 300 300 299 297 296 296 299 300 301 302 302 301 300 300 301 301 301 300 302 303 303 302 302 302 305 304
297 302 301 299 300 298 297 297 295 296 296 301 302 302 302 302 301 299 299 300 299 297 297 298 299 300 300 301 301 301 300 300 302 302 302 302 302 301 301 302 301 302 301 301
291 301 299 291 298 299 297 299 297 292 298 302 300 302 300 299 300 299 299 298 297 297 296 298 299 300 299 300 301 300 300 301 301 302 300 300 300 301 301 300 300 299 300 299
290 295 284 297 303 302 299 299 300 300 302 302 300 301 300 300 299 299 298 297 296 297 297 298 299 299 300 301 300 300 300 299 300 300 299 300 300 300 301 300 300 299 298 298
287 287 295 298 300 298 294 295 301 301 302 303 302 301 297 301 300 297 296 297 298 298 297 298 299 300 300 300 300 298 298 299 300 301 300 300 300 300 301 301 300 299 297 297
291 284 282 296 304 306 301 288 302 302 301 301 300 290 292 299 299 297 297 296 297 298 298 299 299 299 299 299 298 296 298 300 301 301 301 300 301 300 301 300 301 301 300 297
290 285 294 303 305 305 288 290 302 303 302 301 296 297 298 298 297 297 298 298 298 297 295 296 300 300 298 299 297 298 300 302 302 304 301 299 296 296 294 296 299 299 300 298
292 288 286 306 303 295 301 303 303 303 303 301 300 300 298 297 296 297 297 297 298 298 298 298 299 298 297 295 298 299 301 301 300 297 299 297 292 292 291 291 292 294 292 293
294 293 306 309 307 309 307 303 304 302 303 303 300 299 297 295 296 297 297 295 298 298 298 299 299 297 296 298 300 301 300 298 296 296 296 297 291 290 288 288 289 290 293 289
298 305 306 308 309 307 306 306 306 305 303 302 299 298 296 295 297 296 297 297 299 298 298 298 298 299 299 300 302 301 299 298 297 294 293 293 294 293 288 286 287 288 289 290
301 304 308 309 308 308 308 308 307 305 303 302 300 297 297 296 297 296 295 297 297 296 296 296 298 302 303 303 302 299 297 297 299 297 294 293 293 292 290 286 287 286 286 288
296 304 304 306 309 309 307 306 305 303 302 303 300 297 297 298 298 295 295 297 297 297 297 298 300 299 300 301 299 297 296 298 297 295 297 295 293 289 291 291 290 290 290 288
304 308 309 311 309 309 307 306 305 303 303 301 300 299 298 298 296 299 298 299 300 299 301 300 299 299 300 301 300 297 294 295 295 297 295 295 295 294 291 291 291 291 290 290
311 310 307 308 306 309 309 308 308 305 304 301 300 300 299 296 298 299 299 300 301 300 300 299 299 298 300 301 300 298 295 298 293 296 295 295 294 295 297 293 290 290 292 290
310 311 309 310 309 308 306 305 303 301 300 299 300 301 300 297 297 299 301 301 301 300 300 300 299 299 302 303 303 298 295 294 294 295 295 296 295 295 294 294 293 292 292 293
310 308 308 307 307 306 305 304 301 300 300 299 300 301 301 299 300 301 301 301 298 297 299 301 301 301 303 302 301 301 298 295 294 293 295 294 295 295 294 294 293 293 292 292
306 303 305 305 306 305 304 303 303 301 300 299 300 302 301 300 300 300 300 300 302 302 302 301 300 303 303 302 300 301 301 299 296 295 295 294 294 295 295 294 294 293 293 293
309 307 308 306 306 305 305 305 305 302 300 301 302 302 301 299 298 300 299 303 302 301 302 302 301 301 304 306 299 298 297 298 296 296 296 295 295 296 295 294 294 294 294 294
310 308 308 308 307 306 305 304 302 302 301 302 302 301 301 300 300 301 301 302 301 299 300 302 299 298 299 303 301 297 296 298 298 296 295 295 296 295 295 295 295 295 295 295
309 309 309 308 310 308 304 305 303 301 302 302 303 301 300 300 301 301 301 299 301 302 303 304 299 300 304 304 298 296 297 298 297 297 296 295 296 295 296 293 295 296 296 296
308 309 309 306 306 306 305 304 302 301 302 303 302 301 301 301 301 302 300 298 304 304 305 302 301 302 304 294 294 295 296 297 297 297 298 296 297 297 296 297 296 296 297 298
308 307 306 305 304 304 304 303 303 302 302 303 303 303 302 301 300 301 303 301 306 299 301 301 302 298 293 290 294 296 298 299 298 297 297 296 296 297 297 298 297 298 298 297
307 306 304 304 303 303 303 303 302 302 303 303 303 303 302 302 301 299 298 303 306 298 300 299 291 288 288 293 296 298 300 299 299 299 298 298 298 299 298 297 298 298 299 298
306 305 304 305 305 303 300 301 301 303 303 304 305 305 304 302 302 303 304 298 298 297 300 298 294 288 288 295 296 298 300 299 298 299 300 295 299 299 299 298 297 298 298 298
306 305 305 304 302 301 301 301 303 303 303 303 304 305 306 307 304 304 305 307 293 298 299 293 289 288 294 296 299 299 300 299 298 300 299 298 297 296 296 296 295 295 296 296
305 304 305 305 303 302 301 301 299 301 302 301 304 304 304 304 307 306 308 304 301 298 301 301 297 297 297 300 302 300 298 297 298 296 295 296 295 295 295 294 294 294 293 293
306 303 304 304 305 304 303 301 300 301 301 302 302 304 305 305 305 304 303 305 305 303 302 302 299 298 303 302 301 298 297 296 292 294 295 294 294 294 294 293 293 292 291 291
Wind_Speed
5 7 11 14 2 5 5 5 7 3 8 6 8 10 9 8 8 11 13 12 10 9 7 6 7 5 5 5 5 6 5 6 8 7 7 6 7 7 6 6 6 6 7 7
6 10 12 11 7 4 6 5 2 9 8 7 7 8 10 9 10 12 12 10 8 9 8 7 5 5 5 6 5 5 5 5 6 6 6 6 5 6 6 5 6 5 5 5
4 7 10 8 2 4 4 4 6 4 8 7 9 10 8 8 10 11 9 9 9 7 7 4 4 5 5 5 4 4 4 4 5 5 6 6 6 6 6 4 4 5 5 5
3 4 3 7 5 5 2 4 8 9 12 12 9 9 9 9 11 10 10 8 6 8 5 3 3 4 4 4 4 3 4 4 5 4 5 7 7 6 6 3 4 3 4 5
4 1 6 7 4 3 4 3 5 9 12 13 16 14 10 13 12 10 8 8 7 5 1 2 3 3 3 3 2 3 2 3 5 5 6 7 7 7 6 4 3 2 2 5
1 4 4 2 4 7 7 2 6 9 8 10 7 5 3 9 11 9 7 6 4 2 1 4 2 3 2 3 1 3 2 5 6 6 7 7 7 8 5 5 5 1 1 5
3 2 6 6 7 6 2 8 6 9 9 9 6 5 11 12 9 7 7 5 4 4 3 2 2 2 2 1 5 4 5 5 6 7 5 4 5 6 6 8 10 8 6 4
4 4 7 6 6 3 7 5 9 9 12 14 16 13 13 10 8 8 6 4 4 4 3 1 1 0 2 4 6 6 6 6 5 4 5 4 7 6 6 7 7 7 6 5
9 8 3 5 8 6 6 7 6 10 9 13 16 14 13 9 8 6 6 4 3 4 3 2 3 3 4 6 6 6 5 3 3 3 3 2 5 7 5 7 6 5 5 5
7 3 8 9 7 6 6 9 10 9 9 9 15 15 13 8 8 5 5 4 4 5 3 2 4 6 6 7 7 5 6 6 4 2 1 2 2 3 4 4 4 4 4 4
0 7 8 7 9 8 11 13 11 9 7 15 17 12 11 9 7 6 6 5 6 5 4 5 5 6 5 3 3 4 4 2 5 4 4 3 1 1 2 1 2 0 2 3
6 7 8 10 9 12 12 11 9 10 8 12 15 13 11 9 6 6 7 6 5 6 6 6 6 1 4 3 4 4 4 4 5 1 5 5 4 1 2 2 3 6 7 4
4 5 7 11 11 10 12 11 10 10 14 14 9 11 9 8 6 8 7 7 7 8 7 6 4 3 1 3 2 2 3 5 4 4 3 4 1 5 4 4 8 9 11 12
10 11 9 8 8 10 11 12 10 13 13 13 9 9 9 6 6 6 7 7 8 7 5 5 5 3 2 4 3 3 3 7 2 4 4 4 4 1 4 4 3 3 8 10
8 8 9 10 10 11 12 11 13 14 13 9 7 11 9 7 7 7 6 6 6 6 6 6 6 6 3 3 5 3 3 3 3 3 4 5 4 4 1 2 2 3 2 3
9 9 10 12 12 13 12 9 11 12 12 8 9 9 8 7 7 6 7 6 5 5 6 5 5 3 3 4 5 3 5 10 6 4 4 3 4 4 4 3 2 4 2 2
12 9 10 10 13 13 11 8 8 13 13 11 10 9 8 6 5 3 6 6 5 4 4 6 3 1 4 5 4 2 3 6 10 4 3 2 2 3 3 2 3 2 4 3
11 8 10 11 13 11 10 10 8 16 14 13 10 9 7 6 6 5 6 5 6 4 3 5 3 3 6 6 2 4 4 5 5 4 2 1 2 4 3 2 3 2 2 3
11 11 10 11 14 12 8 8 16 14 13 12 11 10 7 5 5 5 5 5 6 5 4 6 6 5 7 7 7 3 4 6 5 1 1 2 2 4 2 3 3 2 1 1
11 11 11 9 14 13 9 13 15 14 12 11 11 9 7 6 4 3 3 5 5 6 7 7 5 6 7 7 6 4 5 7 2 1 0 3 3 4 3 3 2 2 1 2
12 11 11 13 12 12 12 15 14 13 12 12 12 10 9 7 5 4 3 3 3 5 6 7 4 4 5 1 3 5 5 5 2 2 3 3 5 4 4 1 1 3 2 3
9 12 14 13 12 12 14 12 13 12 11 10 11 9 7 6 5 4 4 3 3 9 4 3 4 6 3 6 4 4 6 2 2 2 3 3 4 5 5 5 5 6 5 5
11 13 13 12 12 14 11 11 12 11 11 9 11 9 8 5 4 4 3 5 4 7 2 1 2 2 5 5 5 5 7 4 5 5 4 5 5 5 6 5 6 5 4 4
13 13 11 12 14 12 12 8 7 8 7 8 9 10 8 5 4 4 4 1 8 7 4 4 4 5 5 4 4 4 6 6 6 5 6 7 6 7 7 6 7 7 5 6
13 11 11 13 12 8 9 7 7 7 7 5 7 7 9 7 6 5 4 4 8 7 5 7 6 5 4 4 3 5 8 7 8 8 8 7 8 8 7 7 7 6 7 7
11 8 7 10 10 9 8 7 5 4 5 4 5 4 5 3 3 4 5 6 6 6 3 3 4 3 1 5 9 10 10 10 9 8 8 8 8 8 8 8 8 8 7 7
7 7 5 6 9 8 8 7 6 6 4 4 6 5 6 5 4 4 5 5 5 5 5 4 2 4 10 9 10 10 10 9 10 8 8 8 8 8 8 8 9 8 9 9
Wind_Direction
288 284 286 282 211 278 270 218 135 282 79 90 99 99 111 122 102 84 88 81 82 80 70 46 42 19 360 25 29 37 4 358 356 359 7 2 1 349 342 349 355 349 21 33
301 292 276 292 264 218 286 286 143 95 85 113 114 103 76 72 79 84 83 80 79 82 74 40 35 356 18 20 22 29 358 360 357 352 351 340 336 339 346 347 353 2 5 18
272 324 332 321 11 74 19 39 118 112 161 133 79 90 100 86 81 89 89 77 77 83 62 42 20 359 13 348 26 23 350 359 350 342 346 322 330 329 329 314 327 341 351 15
237 15 300 247 55 69 32 12 105 122 121 119 119 99 86 81 98 84 82 82 72 64 51 354 38 20 351 346 43 7 346 357 335 327 316 311 316 323 329 289 304 324 5 29
137 166 279 321 156 133 123 333 352 123 130 132 116 94 61 83 82 85 78 85 83 84 72 355 51 10 348 18 30 6 350 333 314 323 311 302 310 309 295 295 289 343 40 35
119 144 223 183 103 99 83 337 52 94 102 122 126 95 136 105 96 89 86 78 95 114 57 74 52 352 20 39 348 321 290 293 294 289 293 313 338 349 317 314 284 246 83 40
182 193 277 238 129 89 139 224 84 91 88 81 89 123 125 101 87 95 94 105 115 109 99 90 18 11 61 107 261 297 289 288 303 316 328 7 5 10 359 6 23 35 62 41
189 178 265 150 102 181 185 104 105 93 109 106 115 115 111 113 116 109 119 114 97 104 113 141 255 175 228 226 260 271 282 287 300 29 23 22 30 9 14 20 28 22 35 12
146 200 170 68 116 118 119 122 116 106 116 119 127 126 125 124 120 125 125 117 106 113 127 177 228 227 202 246 251 261 282 279 85 53 47 99 50 25 23 24 29 9 16 6
83 179 137 127 114 113 108 109 111 110 121 112 127 127 122 127 127 137 142 134 123 136 136 183 217 236 231 238 247 267 274 216 183 163 245 13 72 78 51 30 27 25 12 352
313 170 127 140 143 130 110 111 106 106 114 132 124 129 131 137 142 159 145 160 163 166 175 219 249 262 247 254 261 290 321 339 193 202 218 226 107 114 125 202 158 14 307 308
218 204 161 177 156 131 123 123 118 112 97 127 128 133 137 143 162 147 172 185 188 192 201 235 242 11 11 5 40 39 12 338 321 321 207 233 209 229 291 162 275 283 280 246
186 118 115 140 141 128 129 127 124 124 122 120 125 133 137 147 177 178 197 196 196 194 210 207 177 172 309 327 338 285 311 307 341 337 353 325 185 197 221 283 262 276 278 282
109 100 85 117 133 129 130 127 121 114 121 125 132 129 140 163 182 187 195 219 161 155 160 171 148 149 267 314 317 346 351 303 294 302 300 309 318 18 198 195 222 276 269 244
113 107 119 121 108 106 115 114 112 119 122 124 127 142 150 181 190 198 220 164 163 161 188 195 178 201 184 294 303 267 307 292 290 303 307 294 295 321 7 288 129 163 292 337
131 123 122 131 128 127 124 129 125 137 132 135 140 154 170 191 207 209 175 160 142 196 220 153 117 150 179 258 287 305 276 275 275 295 321 318 18 349 331 333 31 164 168 258
139 148 146 149 142 141 146 156 148 149 143 148 153 158 180 198 208 234 163 181 195 157 107 118 128 212 231 242 255 261 267 255 260 286 263 111 348 332 322 36 355 179 206 230
149 144 149 146 147 148 159 172 152 147 152 153 149 155 176 190 199 236 185 206 136 127 183 140 145 286 297 298 282 300 304 301 263 254 192 270 256 278 280 280 310 358 213 254
138 139 141 146 154 157 159 135 136 140 142 150 154 162 180 187 210 225 188 155 156 170 228 165 211 241 268 279 274 304 303 300 293 92 161 325 346 271 308 251 281 326 168 102
143 144 155 166 151 142 128 124 130 139 146 150 148 152 172 211 221 212 249 186 211 211 186 183 211 263 270 265 236 273 286 291 300 17 238 317 322 308 329 301 337 357 357 70
146 154 147 126 125 121 119 132 133 140 150 155 152 168 179 193 204 217 235 191 218 137 161 191 226 260 277 258 307 286 285 270 356 341 61 33 360 336 324 360 15 351 80 64
129 125 114 113 111 109 121 125 133 141 156 153 160 165 164 177 197 234 242 185 243 187 178 223 244 262 293 333 313 309 293 79 17 10 83 33 345 329 343 15 12 9 47 16
113 113 114 113 114 118 118 118 139 149 157 157 160 170 173 183 177 172 246 258 207 206 163 180 166 262 316 298 304 301 289 43 34 38 31 17 22 38 29 22 18 17 57 70
112 114 114 112 114 120 126 137 136 149 151 154 166 163 161 166 201 210 248 187 158 164 162 200 228 248 279 299 325 338 65 52 35 34 40 33 29 41 32 26 23 9 10 17
118 120 120 122 126 126 120 130 133 138 148 151 159 165 162 185 185 205 209 186 159 156 203 233 231 253 281 299 34 76 64 54 40 40 39 35 36 34 24 19 15 11 37 25
119 126 127 131 135 139 141 141 142 149 142 150 159 156 163 202 185 204 187 158 169 204 246 250 236 234 239 67 87 73 61 48 41 41 35 33 32 30 19 14 15 28 20 22
109 117 126 127 142 143 145 155 148 157 150 144 151 172 174 170 199 241 175 152 174 186 222 256 228 50 91 85 78 72 63 56 47 37 29 34 34 25 20 19 25 23 16 18